CZ-3A DEB, 35550

Orbit data source: Space-Track

CZ-3A DEB, 35550 is space debris in HEO originally from a launch on Fri, 02 Feb 2007 UTC launched from the Xichang Space Center, China (XSC). Debris objects in space refer to the collection of defunct objects orbiting the Earth. Examples of debris include non-operational satellites, rocket bodies, and fragments generated from explosions, collisions, or faulty payload assembly.

Loading next visibility...
Identifier
35550, 2007-003J
Orbit
HEO
Country
Flag of CNCN / PRC
Related business
Manufacturer
Unknown
Mission
Spacecraft
Bus & Motor
Unknown
Mass
Unknown
Launch date (UTC)
2007-02-02 (19 years ago)
Launch vehicle
Unknown
Launch site
Xichang Space Center, China (XSC)
Object type
Payload
Rocket body
Debris
Shape & HBR
Unknown shape, 0.3 m
Radar Cross Section
Medium (>0.1 m² and <1 m²)

Expand to show TLE details & history
Last TLE update: 1 day ago

TLE from 1 day ago
0 CZ-3A DEB
1 35550U 07003J   25290.54535107  .00011517  00000-0  16599-1 0  9992
2 35550  23.8664  94.3848 7416705 153.4113 281.2107  2.07063490125182
Epoch: 2025-10-17T13:05Z
TLE epoch observation values (Epoch: 2025-10-17T13:05:18.332Z)
Latitude
-0.0001°
Longitude
-128.16871°
Altitude
28,266.934 km
Speed
2.771 km/s
True Right ascension
06h 17m 47s
True Declination
0° 00' 00"
Sunlit
Object was in daylight at epoch
Visualization orbit readout
Latitude
Unknown
Longitude
Unknown
Altitude
Unknown
Speed
Unknown
Apparent Right ascension
Unknown
Apparent Declination
Unknown
Sunlit
N/A
Visualization observer readout
Local Sidereal Time
10:38:02
Azimuth
Unknown
Elevation
Unknown
Doppler factor
Unknown
Orbital elements
Apogee altitude
38,915.425 km
Perigee altitude
339.932 km
Semi-major axis
26,005.816 km
Eccentricity
0.74167
Inclination
23.8664°
RAAN
94.3848°
Arg. of periapsis
153.4113°
True anomaly
206.68918°
Mean anomaly
281.2107°
Eccentric anomaly
243.26044°
Mean motion
0.51753 °/min
Orbital period
695.61 mins
BSTAR
0.016599
Loading maneuver chart data...
Computing Atmospheric mass density...
Loading historical data...
Loading historical data...
Loading historical data...
Loading historical data...
Loading historical data...
Loading historical data...
Loading historical data...

Documentation

Showing up to 5 results
|